This is the latest recevied weather packets stored in our database for station/object W0AKY-13. If no packets are shown the sender has not sent any weather packets the latest 10 day(s).
| Time | Temp. | Humidity | Pressure | Rain* | Wind** | Luminosity | Snow |
|---|---|---|---|---|---|---|---|
| 1777339855 | 10.56° C | 79% | 1013.7 hPa | 0 mm | - | 0 W/m² | - |
| 1777339553 | 10.56° C | 79% | 1013.3 hPa | 0 mm | - | 0 W/m² | - |
| 1777339250 | 10.56° C | 79% | 1013.2 hPa | 0 mm | - | 0 W/m² | - |
| 1777338948 | 10.56° C | 80% | 1012.9 hPa | 0 mm | - | 1 W/m² | - |
| 1777338644 | 10.56° C | 80% | 1013 hPa | 0 mm | - | 2 W/m² | - |
| 1777338342 | 10.56° C | 80% | 1012.9 hPa | 0 mm | - | 2 W/m² | - |
| 1777338038 | 10.56° C | 80% | 1012.6 hPa | 0 mm | - | 3 W/m² | - |
| 1777337734 | 11.11° C | 80% | 1012.6 hPa | 0 mm | - | 5 W/m² | - |
| 1777337432 | 11.11° C | 79% | 1012.4 hPa | 0 mm | - | 3 W/m² | - |
| 1777337129 | 11.11° C | 80% | 1012.4 hPa | 0 mm | - | 4 W/m² | - |
| 1777336826 | 11.67° C | 80% | 1012.2 hPa | 0 mm | - | 4 W/m² | - |
| 1777336526 | 11.67° C | 80% | 1012.2 hPa | 0 mm | - | 4 W/m² | - |
| 1777336223 | 11.67° C | 80% | 1012.3 hPa | 0 mm | - | 5 W/m² | - |
| 1777335920 | 11.67° C | 79% | 1012 hPa | 0 mm | - | 6 W/m² | - |
| 1777335617 | 11.67° C | 79% | 1011.8 hPa | 0 mm | - | 9 W/m² | - |
| 1777335314 | 11.67° C | 80% | 1011.2 hPa | 0 mm | - | 11 W/m² | - |
| 1777335011 | 11.67° C | 78% | 1011.5 hPa | 0 mm | - | 17 W/m² | - |
| 1777334708 | 11.67° C | 79% | 1011.3 hPa | 0 mm | - | 18 W/m² | - |
| 1777334406 | 11.67° C | 78% | 1011 hPa | 0 mm | - | 30 W/m² | - |
| 1777334102 | 12.22° C | 77% | 1011.1 hPa | 0 mm | - | 25 W/m² | - |
| 1777333801 | 12.22° C | 79% | 1011.1 hPa | 0 mm | - | 33 W/m² | - |
| 1777333499 | 12.22° C | 78% | 1010.8 hPa | 0 mm | - | 57 W/m² | - |
| 1777333195 | 12.22° C | 78% | 1010.6 hPa | 0 mm | - | 32 W/m² | - |
| 1777332894 | 12.22° C | 78% | 1010.6 hPa | 0 mm | - | 35 W/m² | - |
| 1777332591 | 12.22° C | 78% | 1010.6 hPa | 0 mm | - | 28 W/m² | - |
* Rain latest hour (hover to see other rain measurements)
** Current wind speed in m/s (hover to see current wind gust speed)